Flag for Switzerland Weather past 2 weeks in Martigny, Valais, Switzerland

Now
54 °F

Cool.


Feels Like: 52 °F
Forecast: 31 / 59 °F
Wind: 9 mph from West

Location: Sion

Current Time: Mar 27, 2015 at 1:00:04 PM

Latest Report: Mar 27, 2015 at 12:00 PM


Visibility: N/A

Pressure: 30.09 "Hg

Humidity: 37%

Dew point: 28 °F

Location of MartignyLocation

Historic Weather in Martigny — Graph

°F

Martigny temperature yesterday

Maximum temperature yesterday: 53 °F (at 2:00 PM)
Minimum temperature yesterday: 42 °F (at 12:00 AM)
Average temperature yesterday: 45 °F

Past Weeks' High & Low Weather Summary

 TemperatureHumidityPressure
High66 °F (Mar 19, 4:00 PM)92% (Mar 22, 7:00 AM)30.34 "Hg (Mar 22, 7:00 AM)
Low31 °F (Mar 13, 5:00 AM)24% (Mar 24, 2:00 PM)29.50 "Hg (Mar 25, 12:00 PM)
Average48 °F57%30.03 "Hg
* Reported Mar 12 11:00 AM — Mar 27 11:00 AM, Martigny, Weather by CustomWeather, © 2015

Note: Actual official high and low records may vary slightly from our data, if they occured in-between our weather recording intervals... More about our weather records

Advertising

Martigny weather history for previous 24 hours

 ConditionsComfort  
Time TempWeatherWind HumidityBarometerVisibility
11:00 AM
Fri, Mar 27
52 °FCool.17 mph44%30.08 "HgN/A
10:00 AM51 °FPartly sunny.17 mph50%30.08 "Hg12 mi
9:00 AM49 °FCool.16 mph56%30.07 "HgN/A
8:00 AM46 °FCool.8 mph62%30.06 "HgN/A
7:00 AM44 °FOvercast.6 mph73%30.05 "Hg9 mi
6:00 AM42 °FQuite cool.7 mph78%30.02 "HgN/A
5:00 AM44 °FQuite cool.10 mph77%29.99 "HgN/A
3:00 AM44 °FQuite cool.6 mph73%29.98 "HgN/A
2:00 AM45 °FQuite cool.6 mph70%29.96 "HgN/A
1:00 AM45 °FOvercast.7 mph69%29.96 "Hg9 mi
12:00 AM45 °FQuite cool.1 mph69%29.95 "HgN/A
11:00 PM
Thu, Mar 26
45 °FQuite cool.7 mph70%29.95 "HgN/A
10:00 PM45 °FOvercast.10 mph70%29.95 "Hg9 mi
9:00 PM46 °FCool.2 mph64%29.93 "HgN/A
8:00 PM46 °FCool.5 mph63%29.91 "HgN/A
7:00 PM46 °FOvercast.9 mph60%29.90 "Hg9 mi
6:00 PM47 °FCool.15 mph60%29.87 "HgN/A
5:00 PM48 °FCool.18 mph55%29.84 "HgN/A
4:00 PM50 °FPartly sunny.18 mph52%29.83 "Hg9 mi
3:00 PM50 °FCool.17 mph52%29.81 "HgN/A
2:00 PM53 °FCool.13 mph48%29.80 "HgN/A
1:00 PM50 °FOvercast.8 mph54%29.82 "Hg9 mi
Weather by CustomWeather, © 2015

See weather overviewHow to use our weather pages